Flag for Austria Weather past 2 weeks in Bruck an der Leitha, Lower Austria, Austria

Now
58 °F

Clear.


Feels Like: 56 °F
Forecast: 49 / 63 °F
Wind: 7 mph from Northwest

Location: Wien / Schwechat-Flughafen

Current Time: Apr 22, 2015 at 2:31:56 AM

Latest Report: Apr 22, 2015 at 2:00 AM


Visibility: 28 mi

Pressure: 30.18 "Hg

Humidity: 38%

Dew point: 32 °F

Location of Bruck an der LeithaLocation

Historic Weather in Bruck an der Leitha — Graph

°F

Bruck an der Leitha temperature yesterday

Maximum temperature yesterday: 68 °F (at 6:00 PM)
Minimum temperature yesterday: 46 °F (at 7:00 AM)
Average temperature yesterday: 57 °F

Past Weeks' High & Low Weather Summary

 TemperatureHumidityPressure
High77 °F (Apr 16, 1:00 PM)96% (Apr 17, 6:00 PM)30.50 "Hg (Apr 17, 6:00 PM)
Low31 °F (Apr 19, 7:00 AM)18% (Apr 16, 2:00 PM)29.80 "Hg (Apr 17, 4:00 PM)
Average53 °F55%30.21 "Hg
* Reported Midnight between Apr 6 and Apr 7 — Midnight between Apr 21 and Apr 22, Bruck an der Leitha, Weather by CustomWeather, © 2015

Note: Actual official high and low records may vary slightly from our data, if they occured in-between our weather recording intervals... More about our weather records

Advertising

Bruck an der Leitha weather history for previous 24 hours

 ConditionsComfort  
Time TempWeatherWind HumidityBarometerVisibility
12:00 AM
Wed, Apr 22
60 °FClear.9 mph33%30.16 "Hg28 mi
11:00 PM
Tue, Apr 21
61 °FClear.8 mph32%30.16 "Hg28 mi
10:00 PM60 °FClear.7 mph34%30.16 "Hg28 mi
9:00 PM63 °FPassing clouds.8 mph26%30.14 "Hg25 mi
8:00 PM64 °FPassing clouds.8 mph24%30.11 "Hg31 mi
7:00 PM67 °FPassing clouds.9 mph24%30.09 "Hg25 mi
6:00 PM68 °FPassing clouds.14 mph23%30.09 "Hg14 mi
5:00 PM67 °FPassing clouds.10 mph25%30.11 "Hg22 mi
4:00 PM67 °FPassing clouds.10 mph29%30.12 "Hg22 mi
3:00 PM65 °FPassing clouds.12 mph32%30.16 "Hg14 mi
2:00 PM63 °FPassing clouds.13 mph34%30.19 "Hg19 mi
1:00 PM61 °FScattered clouds.10 mph36%30.21 "Hg19 mi
12:00 PM58 °FPartly sunny.9 mph44%30.24 "Hg25 mi
11:00 AM56 °FPartly sunny.9 mph47%30.26 "Hg17 mi
10:00 AM52 °FOvercast.8 mph50%30.27 "Hg22 mi
9:00 AM49 °FOvercast.8 mph52%30.28 "Hg22 mi
8:00 AM48 °FPartly sunny.9 mph59%30.27 "Hg22 mi
7:00 AM46 °FScattered clouds.5 mph63%30.26 "Hg28 mi
6:00 AM46 °FPassing clouds.7 mph49%30.24 "Hg2 mi
5:00 AM47 °FPassing clouds.7 mph54%30.23 "Hg28 mi
4:00 AM50 °FClear.7 mph54%30.22 "Hg28 mi
3:00 AM51 °FPassing clouds.7 mph54%30.19 "Hg28 mi
2:00 AM52 °FPassing clouds.7 mph53%30.19 "Hg31 mi
Weather by CustomWeather, © 2015

See weather overviewHow to use our weather pages